[[{"header":{"parameterUnit":"m.s-1","parameterCategory":1,"la1":30.2991,"la2":30.254,"lo1":-89.0895,"lo2":-89.0444,"dy":0.0017,"dx":0.0017,"nx":28,"ny":28,"refTime":"2025-12-19T03:00:00:Z","depth":0,"parameterNumber":2,"parameterNumberName":"U-component_of_WINDS"},"data":[0,0,0,0,0,0,0,0,0,0,0,0,0,0,0,0,0,0,0,0,0,0,0,0,0,0,0,0,0,0,0,0,0,0,0,0,0,0,0,0,0,0,0,0,0,0,0,0,0,0,0,0,0,0,0,0,0,0,-2.0007,-2.0008,0,-2.0034,-2.0034,-2.0035,-1.9943,-1.994,-1.9938,-1.9935,-1.9965,-1.9968,-1.9972,0,0,0,0,0,0,0,0,0,0,0,0,0,-1.9879,-1.9881,-2.0007,-2.0008,-2.0008,-2.0034,-2.0035,-2.0035,-1.9944,-1.994,-1.9937,-1.9934,-1.9964,-1.9968,-1.9972,0,0,0,0,0,0,0,0,0,0,0,0,0,-1.9923,-1.9882,-2.0007,-1.9965,-1.9962,-2.0034,-2.0035,-2.0035,-1.9944,-1.994,-1.9936,-1.9932,-1.9963,-1.9968,-1.9973,-2.0087,0,0,-1.9988,-1.999,0,0,0,0,0,0,0,0,-1.9921,-1.9928,-1.9971,-1.9968,-1.9965,-1.9981,-2.0,-2.0053,-1.9945,-1.9951,-1.9935,-1.993,-1.9974,-1.9978,-1.9992,-2.0088,-2.009,-1.9988,-1.9992,-1.9994,-1.9995,0,0,0,0,0,0,0,-1.9918,-1.9926,-2.0018,-1.9972,-1.9968,-1.9946,-1.9948,-2.001,-1.9986,-1.995,-1.9944,-1.9948,-1.9971,-1.9987,-1.9992,-2.009,-1.9988,-1.9993,-1.9996,-1.9998,-2.0282,-2.0286,0,0,0,0,0,0,-1.992,-1.9924,-2.0017,-2.0019,-1.9932,-1.9952,-1.9954,-1.998,-1.9985,-1.9981,-1.9951,-1.9944,-1.9981,-1.9986,-1.9993,-2.0128,-1.9994,-1.9998,-2.0001,-2.0278,-2.0283,-2.0288,0,0,0,0,0,0,-1.9917,-1.9929,-2.0016,-1.997,-1.9979,-1.9958,-1.9989,-1.9983,-1.9999,-1.9985,-1.9981,-1.9972,-1.9978,-1.9986,-2.0064,-2.0128,-2.0001,-2.0005,-2.0272,-2.0279,-2.0286,-2.0399,0,0,0,0,0,0,-1.9914,-1.9929,-1.9972,-1.9971,-1.9982,-2.0087,-1.9993,-1.9986,-2.0007,-1.9997,-2.0004,-2.0001,-1.9975,-2.0057,-2.0069,-2.0132,-2.0009,-2.0267,-2.0276,-2.0283,-2.0389,-2.0409,-2.0425,0,0,0,0,0,-1.991,-2.0003,-1.9974,-1.9986,-2.0035,-2.0091,-2.0097,-2.0065,-2.0013,-2.0056,-2.0048,-2.0001,-2.0118,-2.0066,-2.0079,-2.0144,-2.0263,-2.0273,-2.0283,-2.0381,-2.0405,-2.0425,0,0,0,0,0,0,-2.0012,-2.0002,-1.997,-2.0066,-2.008,-2.0075,-2.0129,-2.009,-2.012,-2.0109,-2.0068,-2.0071,-2.0157,-2.0158,-2.01,-2.0256,-2.0182,-2.0195,-2.0252,-2.0274,-2.0292,-2.0291,-2.0014,0,0,0,0,0,-2.0045,-2.0091,-2.008,-2.0165,-2.0174,-2.015,-2.0173,-2.0147,-2.016,-2.0166,-2.0163,-2.0178,-2.0218,-2.0246,-2.0282,-2.0388,-2.0389,-2.044,-2.0458,-2.0472,-2.0485,-2.0542,-2.0565,-2.0321,-2.0321,-2.0321,0,0,-2.0115,-2.0116,-2.0147,-2.0186,-2.0193,-2.0242,-2.0156,-2.0211,-2.0247,-2.0174,-2.0249,-2.0247,-2.0261,-2.0354,-2.0395,-2.0358,-2.0552,-2.0485,-2.0497,-2.0502,-2.0555,-2.0578,-2.0599,-2.0328,-2.0327,-2.0326,0,0,-2.0268,-2.0272,-2.0344,-2.0354,-2.0366,-2.035,-2.0367,-2.0368,-2.0364,-2.0438,-2.0384,-2.0427,-2.0497,-2.0509,-2.0525,-2.0682,-2.064,-2.0695,-2.0789,-2.0845,-2.0864,-2.0881,-2.0939,-2.096,-2.0707,-2.0707,-2.0707,0,-2.0354,-2.0425,-2.0386,-2.0445,-2.0465,-2.0399,-2.0473,-2.0484,-2.0508,-2.0523,-2.048,-2.0567,-2.0572,-2.0668,-2.0706,-2.072,-2.0739,-2.0695,-2.0864,-2.0881,-2.0896,-2.0951,-2.0972,-2.0714,-2.0713,-2.0712,-2.0712,0,-2.0531,-2.0581,-2.0637,-2.0662,-2.0687,-2.0753,-2.0725,-2.0755,-2.0726,-2.0715,-2.0791,-2.0794,-2.083,-2.085,-2.0823,-2.0942,-2.0919,-2.0871,-2.0796,-2.0927,-2.0977,-2.0998,-2.0723,-2.0721,-2.0719,-2.0717,0,0,-2.0751,-2.0752,-2.0774,-2.0784,-2.0793,-2.0831,-2.0894,-2.0928,-2.0956,-2.0974,-2.1027,-2.1087,-2.1043,-2.106,-2.1034,-2.1083,-2.1209,-2.1029,-2.1028,-2.1064,-2.1342,-2.138,-2.1404,-2.118,-2.1184,-2.1187,-2.1341,0,-2.0902,-2.101,-2.0977,-2.1085,-2.1131,-2.107,-2.1125,-2.1136,-2.1127,-2.1165,-2.1154,-2.1199,-2.1136,-2.1146,-2.1192,-2.1184,-2.1264,-2.1172,-2.123,-2.1233,-2.1231,-2.143,-2.147,-2.1616,-2.1361,-2.1364,-2.1366,0,-2.1094,-2.112,-2.1233,-2.1234,-2.1252,-2.1302,-2.1331,-2.1368,-2.138,-2.1369,-2.1389,-2.1352,-2.1415,-2.1338,-2.1424,-2.1362,-2.1383,-2.1383,-2.1388,-2.1394,-2.1309,-2.1444,-2.1662,-2.1685,-2.1397,-2.1394,-2.1392,0,-2.1246,-2.1308,-2.1384,-2.1395,-2.1397,-2.1434,-2.1437,-2.1444,-2.1467,-2.1493,-2.1507,-2.154,-2.1559,-2.1585,-2.1558,-2.1504,-2.1649,-2.157,-2.1643,-2.1644,-2.1679,-2.1677,-2.1905,-2.1689,-2.1689,-2.1688,-2.1688,0,-2.142,-2.1492,-2.1452,-2.1499,-2.1578,-2.1539,-2.1619,-2.1615,-2.1622,-2.1668,-2.1616,-2.166,-2.1621,-2.1661,-2.1641,-2.1716,-2.1724,-2.1719,-2.1713,-2.1725,-2.1726,-2.174,-2.173,-2.1694,-2.1693,-2.1692,-2.1691,0,-2.1603,-2.1579,-2.1658,-2.1654,-2.1654,-2.1713,-2.171,-2.1753,-2.1739,-2.1798,-2.1809,-2.1788,-2.1834,-2.1808,-2.1855,-2.1841,-2.1939,-2.1918,-2.1936,-2.1931,-2.2007,-2.2001,-2.2254,-2.2285,-2.2047,-2.205,-2.2052,0,-2.1717,-2.1771,-2.1772,-2.1799,-2.1805,-2.1848,-2.1871,-2.1835,-2.1861,-2.1878,-2.192,-2.1961,-2.1992,-2.2067,-2.2056,-2.2092,-2.2073,-2.2159,-2.2078,-2.2088,-2.2076,-2.2074,-2.208,-2.2176,-2.2179,-2.2181,-2.2183,0,-2.1922,-2.1908,-2.1942,-2.1974,-2.2002,-2.2025,-2.2043,-2.2068,-2.2032,-2.2064,-2.2109,-2.2133,-2.218,-2.2222,-2.2252,-2.2255,-2.2214,-2.2208,-2.2227,-2.2241,-2.225,-2.2248,-2.1982,-2.2203,-2.2201,-2.2199,-2.2198,-2.2197,-2.2076,-2.2121,-2.2129,-2.217,-2.218,-2.2198,-2.2239,-2.223,-2.2267,-2.2302,-2.2278,-2.2332,-2.2342,-2.2378,-2.2387,-2.2429,-2.2395,-2.2422,-2.243,-2.2438,-2.2449,-2.2241,-2.2434,-2.2434,-2.2433,-2.2433,-2.2432,0,-2.228,-2.2282,-2.2319,-2.2346,-2.2379,-2.2335,-2.2353,-2.2383,-2.2431,-2.2444,-2.2475,-2.2527,-2.2567,-2.2559,-2.2595,-2.263,-2.2612,-2.2641,-2.2639,-2.2641,-2.2477,-2.2457,-2.2655,-2.2655,-2.2655,-2.2655,-2.2655,-2.2655,-2.239,-2.2465,-2.2451,-2.2531,-2.2532,-2.2584,-2.2598,-2.2615,-2.2625,-2.2686,-2.2718,-2.2712,-2.2717,-2.2753,-2.2787,-2.2784,-2.2801,-2.2837,-2.2827,-2.2674,-2.2652,-2.2632,-2.2613,-2.284,-2.2841,-2.2988,-2.2989,-2.299]},{"header":{"parameterUnit":"m.s-1","parameterCategory":1,"la1":30.2991,"la2":30.254,"lo1":-89.0895,"lo2":-89.0444,"dy":0.0017,"dx":0.0017,"nx":28,"ny":28,"refTime":"2025-12-19T03:00:00:Z","depth":0,"parameterNumber":3,"parameterNumberName":"V-component_of_WINDS"},"data":[0,0,0,0,0,0,0,0,0,0,0,0,0,0,0,0,0,0,0,0,0,0,0,0,0,0,0,0,0,0,0,0,0,0,0,0,0,0,0,0,0,0,0,0,0,0,0,0,0,0,0,0,0,0,0,0,0,0,-2.7611,-2.7612,0,-2.7706,-2.7707,-2.7708,-2.7688,-2.7686,-2.7684,-2.7683,-2.7777,-2.7781,-2.7785,0,0,0,0,0,0,0,0,0,0,0,0,0,-2.7409,-2.7412,-2.7611,-2.7612,-2.7613,-2.7706,-2.7707,-2.7709,-2.7688,-2.7686,-2.7684,-2.7682,-2.7776,-2.7781,-2.7786,0,0,0,0,0,0,0,0,0,0,0,0,0,-2.7499,-2.7414,-2.7611,-2.7614,-2.7616,-2.7706,-2.7707,-2.7709,-2.7689,-2.7686,-2.7683,-2.7681,-2.7774,-2.778,-2.7786,-2.7878,0,0,-2.7806,-2.7808,0,0,0,0,0,0,0,0,-2.7494,-2.7507,-2.7613,-2.7614,-2.7616,-2.7682,-2.7671,-2.7766,-2.7689,-2.7661,-2.7682,-2.7679,-2.7748,-2.7756,-2.7779,-2.7882,-2.7887,-2.7806,-2.781,-2.7813,-2.7814,0,0,0,0,0,0,0,-2.7488,-2.7503,-2.7648,-2.7614,-2.7616,-2.761,-2.762,-2.7689,-2.7718,-2.7663,-2.7662,-2.7673,-2.7748,-2.7774,-2.7782,-2.7888,-2.7806,-2.7811,-2.7815,-2.7818,-2.807,-2.8073,0,0,0,0,0,0,-2.7481,-2.7497,-2.7645,-2.7651,-2.7547,-2.7616,-2.7627,-2.7664,-2.7717,-2.7723,-2.7676,-2.7672,-2.7764,-2.7774,-2.7785,-2.7895,-2.7813,-2.7818,-2.7822,-2.8067,-2.8071,-2.8074,0,0,0,0,0,0,-2.7476,-2.7494,-2.7642,-2.7574,-2.7593,-2.7622,-2.7663,-2.7667,-2.7692,-2.7727,-2.7731,-2.7697,-2.7762,-2.7776,-2.7855,-2.7898,-2.7821,-2.7827,-2.8064,-2.8069,-2.8073,-2.8117,0,0,0,0,0,0,-2.7471,-2.7493,-2.7528,-2.7575,-2.7596,-2.7711,-2.7666,-2.7671,-2.7704,-2.77,-2.7747,-2.7753,-2.7761,-2.7846,-2.7861,-2.7906,-2.7832,-2.806,-2.8066,-2.8071,-2.8112,-2.8123,-2.8132,0,0,0,0,0,-2.7464,-2.7537,-2.753,-2.7548,-2.7642,-2.7714,-2.7726,-2.7735,-2.7707,-2.7743,-2.7765,-2.7751,-2.7891,-2.7854,-2.7871,-2.7918,-2.8057,-2.8064,-2.8071,-2.8108,-2.8121,-2.8132,0,0,0,0,0,0,-2.7493,-2.7543,-2.7536,-2.7627,-2.7667,-2.771,-2.7756,-2.7749,-2.7796,-2.7791,-2.7799,-2.781,-2.7891,-2.7912,-2.787,-2.8009,-2.797,-2.7981,-2.7992,-2.8005,-2.8015,-2.8008,-2.7837,0,0,0,0,0,-2.7511,-2.7566,-2.7606,-2.7682,-2.7702,-2.7726,-2.7758,-2.7761,-2.7802,-2.7819,-2.7846,-2.7886,-2.7938,-2.7973,-2.8023,-2.8115,-2.8125,-2.8156,-2.8166,-2.8174,-2.8182,-2.8232,-2.8246,-2.8096,-2.8096,-2.8096,0,0,-2.7547,-2.7581,-2.7615,-2.7689,-2.772,-2.7776,-2.774,-2.7801,-2.7843,-2.7827,-2.7904,-2.7926,-2.797,-2.8056,-2.8095,-2.8077,-2.8226,-2.8182,-2.8188,-2.8193,-2.8241,-2.8255,-2.8267,-2.8101,-2.81,-2.8099,0,0,-2.7641,-2.7673,-2.774,-2.7772,-2.7819,-2.7835,-2.7851,-2.7896,-2.791,-2.7987,-2.7977,-2.8026,-2.8117,-2.8149,-2.8177,-2.8283,-2.8272,-2.8299,-2.8351,-2.8399,-2.8411,-2.8422,-2.846,-2.8473,-2.8308,-2.8308,-2.8308,0,-2.768,-2.7765,-2.7775,-2.7837,-2.787,-2.7859,-2.7927,-2.7957,-2.8018,-2.8041,-2.8019,-2.8133,-2.8162,-2.8255,-2.8281,-2.8304,-2.8322,-2.8294,-2.8409,-2.842,-2.843,-2.8466,-2.848,-2.8311,-2.8311,-2.8311,-2.831,0,-2.781,-2.787,-2.7918,-2.7978,-2.8016,-2.8081,-2.8099,-2.8136,-2.8137,-2.8154,-2.8232,-2.8267,-2.8324,-2.8346,-2.8347,-2.844,-2.8426,-2.8407,-2.8368,-2.8447,-2.8481,-2.8495,-2.8316,-2.8314,-2.8314,-2.8313,0,0,-2.7926,-2.7992,-2.8009,-2.8036,-2.8088,-2.8134,-2.8197,-2.8254,-2.8286,-2.8328,-2.8381,-2.8459,-2.8441,-2.8473,-2.8477,-2.852,-2.8601,-2.8495,-2.8496,-2.8513,-2.8705,-2.872,-2.8735,-2.8595,-2.8597,-2.8599,-2.8701,0,-2.8025,-2.8139,-2.8149,-2.8251,-2.8305,-2.8296,-2.8351,-2.8389,-2.8406,-2.8454,-2.8473,-2.8528,-2.85,-2.852,-2.8561,-2.8583,-2.864,-2.8575,-2.8643,-2.8646,-2.8633,-2.8753,-2.8769,-2.8863,-2.8715,-2.8717,-2.8719,0,-2.8156,-2.8204,-2.8311,-2.8355,-2.8379,-2.8428,-2.8481,-2.8528,-2.8569,-2.8579,-2.8615,-2.8613,-2.8678,-2.8636,-2.8725,-2.868,-2.8709,-2.8723,-2.8727,-2.8734,-2.8687,-2.8763,-2.8894,-2.8908,-2.874,-2.8738,-2.8737,0,-2.823,-2.8321,-2.8397,-2.842,-2.8474,-2.8509,-2.8532,-2.8572,-2.8605,-2.8651,-2.8673,-2.8725,-2.8754,-2.8794,-2.8806,-2.8775,-2.8894,-2.8853,-2.8903,-2.8903,-2.8929,-2.8927,-2.9066,-2.8947,-2.8947,-2.8947,-2.8946,0,-2.834,-2.8406,-2.8431,-2.8477,-2.855,-2.8561,-2.8633,-2.8654,-2.8689,-2.8739,-2.8734,-2.8781,-2.8794,-2.8843,-2.8853,-2.8924,-2.8937,-2.8946,-2.8948,-2.8947,-2.8946,-2.8966,-2.8959,-2.895,-2.895,-2.8949,-2.8948,0,-2.8435,-2.8454,-2.8536,-2.858,-2.8593,-2.8645,-2.8682,-2.8726,-2.8743,-2.8806,-2.8822,-2.8848,-2.8905,-2.8921,-2.8989,-2.8996,-2.908,-2.9076,-2.9067,-2.9066,-2.9115,-2.911,-2.9272,-2.9293,-2.916,-2.9162,-2.9163,0,-2.8504,-2.8554,-2.8604,-2.8637,-2.8663,-2.8717,-2.8751,-2.8763,-2.8799,-2.885,-2.8889,-2.8945,-2.8991,-2.9083,-2.9107,-2.916,-2.9156,-2.9209,-2.9164,-2.9161,-2.9157,-2.9154,-2.9159,-2.9218,-2.9219,-2.922,-2.9221,0,-2.8624,-2.8631,-2.8681,-2.8735,-2.8776,-2.8819,-2.886,-2.8887,-2.8905,-2.8945,-2.9004,-2.904,-2.911,-2.9166,-2.9219,-2.9242,-2.9235,-2.9235,-2.925,-2.9249,-2.9241,-2.9246,-2.909,-2.9232,-2.9231,-2.923,-2.9229,-2.9229,-2.8707,-2.8752,-2.8794,-2.885,-2.8882,-2.8921,-2.8965,-2.8987,-2.9037,-2.9096,-2.9099,-2.9163,-2.9203,-2.9273,-2.9299,-2.9349,-2.9333,-2.9354,-2.9359,-2.9364,-2.9368,-2.9234,-2.9358,-2.9358,-2.9358,-2.9358,-2.9357,0,-2.8827,-2.8854,-2.8905,-2.8963,-2.9007,-2.8997,-2.9041,-2.9079,-2.9135,-2.9173,-2.9219,-2.9287,-2.9341,-2.937,-2.9424,-2.9458,-2.9456,-2.9471,-2.9469,-2.9474,-2.9379,-2.9361,-2.9472,-2.9472,-2.9472,-2.9472,-2.9472,-2.9472,-2.8894,-2.8969,-2.8981,-2.9072,-2.9097,-2.9161,-2.9187,-2.9222,-2.9253,-2.9329,-2.9374,-2.9393,-2.9427,-2.9484,-2.9533,-2.954,-2.956,-2.9577,-2.9582,-2.9493,-2.9481,-2.947,-2.9453,-2.9582,-2.9582,-2.9674,-2.9675,-2.9675]}]]